This is the latest recevied weather packets stored in our database for station/object KC0RPY. If no packets are shown the sender has not sent any weather packets the latest 10 day(s).
| Time | Temp. | Humidity | Pressure | Rain* | Wind** | Luminosity | Snow |
|---|---|---|---|---|---|---|---|
| 1777378539 | 8.89° C | 82% | 1018.5 hPa | 0 mm | - | 29 W/m² | - |
| 1777378236 | 8.89° C | 82% | 1018.1 hPa | 0 mm | - | 27 W/m² | - |
| 1777377934 | 8.89° C | 82% | 1018.1 hPa | 0 mm | - | 20 W/m² | - |
| 1777377633 | 8.89° C | 83% | 1018.1 hPa | 0 mm | - | 15 W/m² | - |
| 1777377329 | 8.89° C | 83% | 1017.7 hPa | 0 mm | - | 11 W/m² | - |
| 1777377026 | 8.89° C | 83% | 1017.7 hPa | 0 mm | - | 8 W/m² | - |
| 1777376723 | 8.89° C | 83% | 1017.7 hPa | 0 mm | - | 5 W/m² | - |
| 1777376420 | 8.89° C | 83% | 1017.7 hPa | 0 mm | - | 3 W/m² | - |
| 1777376116 | 8.89° C | 83% | 1017.7 hPa | 0 mm | - | 2 W/m² | - |
| 1777375815 | 8.89° C | 83% | 1017.7 hPa | 0 mm | - | 0 W/m² | - |
| 1777375510 | 8.89° C | 83% | 1018.1 hPa | 0 mm | - | 0 W/m² | - |
| 1777375206 | 8.89° C | 83% | 1018.1 hPa | 0 mm | - | 0 W/m² | - |
| 1777374902 | 8.89° C | 83% | 1017.7 hPa | 0 mm | - | 0 W/m² | - |
| 1777374598 | 8.33° C | 82% | 1017.7 hPa | 0 mm | - | 0 W/m² | - |
| 1777374295 | 8.33° C | 82% | 1017.3 hPa | 0 mm | - | 0 W/m² | - |
| 1777373990 | 8.33° C | 82% | 1016.7 hPa | 0 mm | - | 0 W/m² | - |
| 1777373688 | 8.33° C | 83% | 1016.7 hPa | 0 mm | - | 0 W/m² | - |
| 1777373385 | 8.33° C | 83% | 1016.3 hPa | 0 mm | - | 0 W/m² | - |
| 1777373079 | 8.33° C | 83% | 1016 hPa | 0 mm | - | 0 W/m² | - |
| 1777372775 | 8.33° C | 83% | 1015.7 hPa | 0 mm | - | 0 W/m² | - |
| 1777372470 | 8.33° C | 84% | 1015.7 hPa | 0 mm | - | 0 W/m² | - |
| 1777372167 | 8.33° C | 83% | 1015.7 hPa | 0 mm | - | 0 W/m² | - |
| 1777371863 | 8.33° C | 84% | 1015.7 hPa | 0 mm | - | 0 W/m² | - |
| 1777371560 | 8.33° C | 83% | 1016 hPa | 0 mm | - | 0 W/m² | - |
| 1777371257 | 8.33° C | 83% | 1016 hPa | 0 mm | - | 0 W/m² | - |
* Rain latest hour (hover to see other rain measurements)
** Current wind speed in m/s (hover to see current wind gust speed)